(222610) = 2001 XG56

Discovered at Socorro on 2001-12-11 by LINEAR.

Orbit

Orbit type: Main Belt

Note: WebGL enabled browser required.

epoch2024-03-31.0
epoch JD2460400.5
perihelion date2022-04-12.36113
perihelion JD2459681.86113
argument of perihelion (°)329.80691
ascending node (°)111.72768
inclination (°)8.66329
eccentricity0.2390964
perihelion distance (AU)1.9387558
Tisserand w.r.t. Jupiter3.4
ΔV w.r.t. Earth (km/sec)9.1
semimajor axis (AU)2.5479650
mean anomaly (°)174.15035
mean daily motion (°/day)0.24233360
aphelion distance (AU)3.157
period (years)4.07
P-vector [x]0.14188190
P-vector [y]0.93566993
P-vector [z]0.32309645
Q-vector [x]-0.97994400
Q-vector [y]0.08662634
Q-vector [z]0.17945929
absolute magnitude16.87
phase slope0.15
uncertainty0
referenceMPEC 2024-E123
observations used415
oppositions11
arc length (days)7832
first opposition used2001
last opposition used2023
residual rms (arc-secs)0.71
perturbers coarse indicatorM-v
perturbers precise indicator003Ek
first observation date used2001-11-17.0
last observation date used2023-04-28.0
computer nameMPCLINUX
JD of orbit computation2456639.539151
perihelion JD uncertainty (days)2.5955E-04
argument of perihelion uncertainty (°)1.0395E-04
ascending node uncertainty (°)8.1749E-05
inclination uncertainty (°)8.6476E-06
eccentricity uncertainty 3.1472E-07
perihelion distance uncertainty (AU)8.2991E-07
Minimum Orbit Intersection Distances (in AU)
for orbit epoch: 2460400.5, reference: E2024-FB1
Mercury1.63481
Venus1.22231
Earth0.96055
Mars0.37317
Jupiter2.09937
Saturn6.92724
Uranus15.8349
Neptune27.2656

Observations

420 total observations over interval: 2001 11 17.37550 – 2023 04 28.248310
These data are available for download (format description).

Date (UT) J2000 RA J2000 Dec Magn Location Ref
2001 11 17.37550 05 47 12.61 +12 40 17.0 19.9   704 – Lincoln Laboratory ETS, New Mexico MPS 46810
2001 11 17.40459 05 47 11.79 +12 40 20.2 19.2   704 – Lincoln Laboratory ETS, New Mexico MPS 46810
2001 11 17.41888 05 47 11.45 +12 40 21.9 19.0   704 – Lincoln Laboratory ETS, New Mexico MPS 46810
2001 12 11.30312 05 29 50.55 +14 06 04.5 19.1   704 – Lincoln Laboratory ETS, New Mexico MPS 45152
2001 12 11.33424 05 29 48.65 +14 06 14.8 19.6   704 – Lincoln Laboratory ETS, New Mexico MPS 45152
2001 12 11.34923 05 29 47.77 +14 06 19.4 19.2   704 – Lincoln Laboratory ETS, New Mexico MPS 45152
2001 12 11.36547 05 29 46.81 +14 06 24.6 19.2   704 – Lincoln Laboratory ETS, New Mexico MPS 45152
2001 12 15.22056 05 26 04.11 +14 28 26.2 18.5   704 – Lincoln Laboratory ETS, New Mexico MPS 45152
2001 12 15.23572 05 26 03.16 +14 28 31.9 18.8   704 – Lincoln Laboratory ETS, New Mexico MPS 45152
2001 12 15.25106 05 26 02.24 +14 28 38.2 19.2   704 – Lincoln Laboratory ETS, New Mexico MPS 45152
2001 12 15.26705 05 26 01.22 +14 28 43.4 18.9   704 – Lincoln Laboratory ETS, New Mexico MPS 45152
2001 12 15.28281 05 26 00.23 +14 28 48.5 19.0   704 – Lincoln Laboratory ETS, New Mexico MPS 45152
2001 12 18.30805 05 23 05.55 +14 47 30.6 18.6   704 – Lincoln Laboratory ETS, New Mexico MPS 45152
2001 12 18.35624 05 23 02.64 +14 47 48.7 18.9   704 – Lincoln Laboratory ETS, New Mexico MPS 45152
2001 12 18.37298 05 23 01.65 +14 47 54.8 18.9   704 – Lincoln Laboratory ETS, New Mexico MPS 45152
2002 01 09.25166 05 06 44.70 +17 26 53.6 19.7   704 – Lincoln Laboratory ETS, New Mexico MPS 46810
2002 01 09.26679 05 06 44.11 +17 27 00.7 19.6   704 – Lincoln Laboratory ETS, New Mexico MPS 46810
2002 01 09.28192 05 06 43.67 +17 27 07.3 19.6   704 – Lincoln Laboratory ETS, New Mexico MPS 46810
2002 01 09.29703 05 06 43.29 +17 27 14.3 19.3   704 – Lincoln Laboratory ETS, New Mexico MPS 46810
2002 01 09.31369 05 06 42.79 +17 27 22.7 19.5   704 – Lincoln Laboratory ETS, New Mexico MPS 46810
2002 01 13.15245 05 05 20.92 +17 57 31.3 19.3   704 – Lincoln Laboratory ETS, New Mexico MPS 46810
2002 01 13.16762 05 05 20.63 +17 57 37.8 19.3   704 – Lincoln Laboratory ETS, New Mexico MPS 46810
2002 01 13.18279 05 05 20.33 +17 57 45.0 19.5   704 – Lincoln Laboratory ETS, New Mexico MPS 46810
2002 01 13.19796 05 05 20.03 +17 57 52.6 19.1   704 – Lincoln Laboratory ETS, New Mexico MPS 46810
2002 01 13.21315 05 05 19.74 +17 57 59.8 19.5   704 – Lincoln Laboratory ETS, New Mexico MPS 46810
2002 01 15.16203 05 04 51.20 +18 13 19.2 19.4   704 – Lincoln Laboratory ETS, New Mexico MPS 46810
2002 01 15.17711 05 04 51.00 +18 13 26.4 19.8   704 – Lincoln Laboratory ETS, New Mexico MPS 46810
2002 01 15.19221 05 04 50.75 +18 13 33.5 19.7   704 – Lincoln Laboratory ETS, New Mexico MPS 46810
2002 01 15.20730 05 04 50.55 +18 13 40.8 19.6   704 – Lincoln Laboratory ETS, New Mexico MPS 46810
2003 05 27.24207 14 40 53.48 -03 44 50.0 21.4 V 291 – LPL/Spacewatch II MPS 155230
2003 05 27.24747 14 40 53.21 -03 44 50.0 21.0 V 291 – LPL/Spacewatch II MPS 155230
2003 05 27.25278 14 40 52.97 -03 44 50.3 21.6 V 291 – LPL/Spacewatch II MPS 155230
2005 11 05.33774 04 46 44.61 +08 52 41.2 19.6   704 – Lincoln Laboratory ETS, New Mexico MPS 155230
2005 11 05.36261 04 46 43.84 +08 52 39.6 18.9   704 – Lincoln Laboratory ETS, New Mexico MPS 155230
2005 11 05.37470 04 46 43.48 +08 52 39.0 19.1   704 – Lincoln Laboratory ETS, New Mexico MPS 155230
2005 11 20.40859 04 36 39.91 +08 53 34.0 18.6 R 644 – Palomar Mountain/NEAT MPS 151942
2005 11 20.43135 04 36 38.68 +08 53 35.1 18.5 R 644 – Palomar Mountain/NEAT MPS 151942
2005 11 20.45621 04 36 37.33 +08 53 37.1 18.4 R 644 – Palomar Mountain/NEAT MPS 151942
2005 11 25.32794 04 32 16.36 +09 01 50.4 18.5 V 703 – Catalina Sky Survey MPS 151942
2005 11 25.33824 04 32 15.72 +09 01 51.6 18.6 V 703 – Catalina Sky Survey MPS 151942
2005 11 25.34847 04 32 15.14 +09 01 52.2 18.4 V 703 – Catalina Sky Survey MPS 151942
2005 11 29.38293 04 28 26.71 +09 12 05.4 18.4 R 644 – Palomar Mountain/NEAT MPS 153551
2005 11 29.40379 04 28 25.44 +09 12 08.8 18.3 R 644 – Palomar Mountain/NEAT MPS 153551
2005 11 29.42976 04 28 23.87 +09 12 13.1 18.3 R 644 – Palomar Mountain/NEAT MPS 153551
2005 11 30.21510 04 27 39.38 +09 14 34.5 18.5 R 699 – Lowell Observatory-LONEOS MPS 151942
2005 11 30.23793 04 27 37.98 +09 14 38.8   699 – Lowell Observatory-LONEOS MPS 151942
2005 11 30.26075 04 27 36.60 +09 14 43.7   699 – Lowell Observatory-LONEOS MPS 151942
2005 11 30.28361 04 27 35.26 +09 14 48.0   699 – Lowell Observatory-LONEOS MPS 151942
2005 12 01.36871 04 26 32.53 +09 18 16.7 18.1 V 703 – Catalina Sky Survey MPS 151942
2005 12 01.37906 04 26 31.92 +09 18 18.6 18.2 V 703 – Catalina Sky Survey MPS 151942
2005 12 01.38939 04 26 31.30 +09 18 20.3 18.3 V 703 – Catalina Sky Survey MPS 151942
2005 12 01.39979 04 26 30.62 +09 18 23.2 18.2 V 703 – Catalina Sky Survey MPS 151942
2005 12 07.27199 04 20 57.55 +09 41 15.6 18.4 V 703 – Catalina Sky Survey MPS 153551
2005 12 07.27949 04 20 57.15 +09 41 17.4 18.3 V 703 – Catalina Sky Survey MPS 153551
2005 12 07.28702 04 20 56.72 +09 41 19.7 18.6 V 703 – Catalina Sky Survey MPS 153551
2005 12 07.29448 04 20 56.29 +09 41 22.0 18.8 V 703 – Catalina Sky Survey MPS 153551
2005 12 07.33696 04 20 53.73 +09 41 32.7 18.7   704 – Lincoln Laboratory ETS, New Mexico MPS 153551
2005 12 07.35052 04 20 52.97 +09 41 36.6 19.0   704 – Lincoln Laboratory ETS, New Mexico MPS 153551
2005 12 07.36363 04 20 52.18 +09 41 40.3 19.0   704 – Lincoln Laboratory ETS, New Mexico MPS 153551
2005 12 07.37648 04 20 51.45 +09 41 43.4 19.1   704 – Lincoln Laboratory ETS, New Mexico MPS 153551
2005 12 07.38979 04 20 50.71 +09 41 45.8 18.9   704 – Lincoln Laboratory ETS, New Mexico MPS 153551
2005 12 27.20953 04 06 43.07 +11 44 44.3 19.3   704 – Lincoln Laboratory ETS, New Mexico MPS 156471
2005 12 27.22238 04 06 42.70 +11 44 49.0 19.3   704 – Lincoln Laboratory ETS, New Mexico MPS 156471
2005 12 27.23514 04 06 42.23 +11 44 55.5 19.6   704 – Lincoln Laboratory ETS, New Mexico MPS 156471
2006 01 03.23265 04 04 36.95 +12 41 22.1 20.0   704 – Lincoln Laboratory ETS, New Mexico MPS 157654
2006 01 03.24571 04 04 36.74 +12 41 29.2 19.7   704 – Lincoln Laboratory ETS, New Mexico MPS 157654
2006 01 03.25871 04 04 36.66 +12 41 35.5 19.8   704 – Lincoln Laboratory ETS, New Mexico MPS 157654
2006 01 28.18608 04 12 10.40 +16 27 52.3 19.6 V G96 – Mt. Lemmon Survey MPS 161673
2006 01 28.19197 04 12 10.69 +16 27 55.0 19.7 V G96 – Mt. Lemmon Survey MPS 161673
2006 01 28.19786 04 12 10.94 +16 27 58.5 19.5 V G96 – Mt. Lemmon Survey MPS 161673
2006 01 28.20375 04 12 11.19 +16 28 01.9 19.5 V G96 – Mt. Lemmon Survey MPS 161673
2006 03 05.13765 04 57 05.07 +21 32 47.5 20.3 V G96 – Mt. Lemmon Survey MPS 165966
2006 03 05.14205 04 57 05.47 +21 32 49.7 20.5 V G96 – Mt. Lemmon Survey MPS 165966
2006 03 05.14644 04 57 05.94 +21 32 51.1 20.3 V G96 – Mt. Lemmon Survey MPS 165966
2006 03 05.15090 04 57 06.33 +21 32 53.1 20.3 V G96 – Mt. Lemmon Survey MPS 165966
2007 04 22.21053 14 49 10.16 -03 02 48.9 21.3 V 691 – Steward Observatory, Kitt Peak-Spacewatch MPS 207998
2007 04 22.23009 14 49 09.08 -03 02 43.9 21.0 V 691 – Steward Observatory, Kitt Peak-Spacewatch MPS 207998
2007 04 22.24916 14 49 08.03 -03 02 39.0 21.4 V 691 – Steward Observatory, Kitt Peak-Spacewatch MPS 207998
2009 09 23.12101 03 42 16.88 +05 58 44.4 19.2   A77 – Observatoire Chante-Perdrix, Dauban MPS 295743
2009 09 23.14139 03 42 17.43 +05 58 40.4 18.9   A77 – Observatoire Chante-Perdrix, Dauban MPS 295743
2009 09 23.16175 03 42 18.03 +05 58 37.3 18.9   A77 – Observatoire Chante-Perdrix, Dauban MPS 295743
2009 09 30.41082 03 44 55.24 +05 33 41.5 19.6 V G96 – Mt. Lemmon Survey MPS 296846
2009 09 30.41704 03 44 55.32 +05 33 39.9 19.6 V G96 – Mt. Lemmon Survey MPS 296846
2009 09 30.42292 03 44 55.39 +05 33 38.7 19.5 V G96 – Mt. Lemmon Survey MPS 296846
2009 09 30.42919 03 44 55.46 +05 33 37.4 19.5 V G96 – Mt. Lemmon Survey MPS 296846
2009 10 15.10375 03 44 56.51 +04 34 35.6 19.3 V J75 – OAM Observatory, La Sagra MPS 298250
2009 10 15.11617 03 44 56.31 +04 34 33.5 19.2 V J75 – OAM Observatory, La Sagra MPS 298250
